Regional Weather Roundup
Issued by NWS

Home | Current Version | Previous Version | Text Only | Print | Product List | Glossary Off
Versions: 1 2 3 4 5 6 7 8 9 10 11 12 13 14 15 16 17 18 19 20 21 22 23 24 25 26 27 28 29 30 31 32 33 34 35 36 37 38 39 40 41 42 43 44 45 46 47 48 49 50

000
ASUS43 KIND 261359
RWRIN

WEATHER ROUNDUP FOR INDIANA
NATIONAL WEATHER SERVICE INDIANAPOLIS IN
1000 AM EDT MON SEP 26 2016

NOTE: "FAIR" INDICATES FEW OR NO CLOUDS BELOW 12,000 FEET WITH NO
SIGNIFICANT WEATHER AND/OR OBSTRUCTIONS TO VISIBILITY.

* - STATION DOES NOT REPORT WEATHER SUCH AS PRECIPITATION OR FOG.

+ - STATION NOT QUALITY CONTROLLED BY THE NATIONAL WEATHER SERVICE.
    USE DATA WITH CAUTION...ESPECIALLY DEWPOINT AND RELATIVE
    HUMIDITY OBSERVATIONS.

INZ001>003-010>013-019-020-261500-
NORTHWEST INDIANA

CITY           SKY/WX    TMP DP  RH WIND       PRES   REMARKS
GARY /AIRPORT/ PTSUNNY   61  52  72 W12       30.02S

$$

LMZ046-743>745-261500-
SOUTHERN LAKE MICHIGAN

STATION/POSITION TIME  TEMP    WIND        PRES    WAVE
                       AIR SEA DIR/SP/G            HT
                 (UTC) (F)     (DEG/KT/KT) (MB)    (FT)
BURNS HARBOR     1301   62     260/ 17/ 21 1016.3R
MICHIGAN CITY    1300   62     250/ 22/ 26   N/A
5NW MICH CITY    1300   63 67  270/ 17/ 23   N/A     5

$$

INZ004-005-014>016-021>024-261500-
NORTH CENTRAL INDIANA

CITY           SKY/WX    TMP DP  RH WIND       PRES   REMARKS
ELKHART        PTSUNNY  N/A N/A N/A SW9       29.98R
GOSHEN         CLOUDY    59  55  87 W10       29.99R
SOUTH BEND     CLOUDY    58  54  86 W8        30.00R
WARSAW +       CLOUDY    57  52  82 W12       30.00R

$$

INZ006>009-017-018-025>027-261500-
NORTHEAST INDIANA

CITY           SKY/WX    TMP DP  RH WIND       PRES   REMARKS
ANGOLA *+        N/A     59  50  72 W9        29.97R
FORT WAYNE     CLOUDY    59  56  89 W12       30.00S
KENDALLVILLE + CLOUDY    59  57  92 W13       29.98R

$$

INZ028-029-035-036-043>045-051>053-261500-
WEST CENTRAL INDIANA

CITY           SKY/WX    TMP DP  RH WIND       PRES   REMARKS
CRAWFORDSVL +  PTSUNNY   56  56 100 W6        30.08R
GREENCASTLE +  CLOUDY    57  57 100 W5        30.09R
LAFAYETTE      CLOUDY    58  57  97 W10       30.06R
TERRE HAUTE    LGT RAIN  60  56  86 W8        30.10R

$$

INZ030>032-037>040-046>048-054>057-064-065-261500-
CENTRAL INDIANA

CITY           SKY/WX    TMP DP  RH WIND       PRES   REMARKS
ANDERSON       CLOUDY    57  57 100 CALM      30.03F
INDIANAPOLIS   CLOUDY    60  56  86 NW8       30.04F
-EAGLE CREEK   CLOUDY    60  56  86 NW9       30.04S
MT COMFORT *+  CLOUDY    59  55  88 NW8       30.03F
SHELBYVILLE    CLOUDY    61  56  83 NW7       30.03F

$$

INZ033-034-041-042-049-050-058-059-261500-
EAST CENTRAL INDIANA

CITY           SKY/WX    TMP DP  RH WIND       PRES   REMARKS
MUNCIE         CLOUDY    60  57  89 W7        30.03S

$$

INZ060-061-067>069-081>083-085>088-261500-
SOUTHWEST INDIANA

CITY           SKY/WX    TMP DP  RH WIND       PRES   REMARKS
EVANSVILLE     CLOUDY    63  58  83 NW7       30.14R
HUNTINGBURG *+   N/A     61  57  88 W5        30.12R

$$

INZ062-063-066-070>080-084-089>092-261500-
SOUTH CENTRAL AND SOUTHEAST INDIANA

CITY           SKY/WX    TMP DP  RH WIND       PRES   REMARKS
BLOOMINGTON    CLOUDY    60  56  86 W10       30.10R
MADISON *+     CLOUDY    61  57  88 CALM      30.09R
SEYMOUR +      LGT RAIN  61  61 100 CALM      30.07R

$$





USA.gov is the U.S. government's official web portal to all federal, state and local government web resources and services.